| time (UTC) | temp C | wind direction | speed KPH | gust KPH | rain 1hr cm | rain 24hr cm | rain mn cm | humidity % | barometer mb |
| 20260902124804 | 16 | 136 | 3.2 | 8.0 | 0.00 | 0.03 | 0.00 | 83 | 1017.0 |
| 20260902124305 | 16 | 113 | 3.2 | 8.0 | 0.00 | 0.03 | 0.00 | 83 | 1017.0 |
| 20260902123802 | 16 | 149 | 3.2 | 9.7 | 0.00 | 0.03 | 0.00 | 83 | 1017.1 |
| 20260902123302 | 16 | 163 | 1.6 | 11.3 | 0.00 | 0.03 | 0.00 | 83 | 1017.1 |
| 20260902122803 | 16 | 126 | 1.6 | 11.3 | 0.00 | 0.03 | 0.00 | 83 | 1017.1 |
| 20260902122301 | 16 | 138 | 1.6 | 4.8 | 0.00 | 0.03 | 0.00 | 83 | 1017.3 |
| 20260902121758 | 16 | 138 | 1.6 | 4.8 | 0.00 | 0.03 | 0.00 | 83 | 1017.4 |
| 20260902121259 | 16 | 137 | 1.6 | 4.8 | 0.00 | 0.03 | 0.00 | 83 | 1017.4 |
| 20260902120752 | 16 | 129 | 1.6 | 8.0 | 0.00 | 0.03 | 0.00 | 83 | 1017.6 |
| 20260902120251 | 16 | 152 | 1.6 | 8.0 | 0.00 | 0.03 | 0.00 | 83 | 1017.7 |
| 20260902115752 | 15 | 123 | 1.6 | 8.0 | 0.00 | 0.03 | 0.00 | 83 | 1017.6 |
| 20260902115252 | 15 | 147 | 3.2 | 12.9 | 0.00 | 0.03 | 0.00 | 83 | 1017.7 |
| 20260902114752 | 15 | 203 | 3.2 | 12.9 | 0.00 | 0.03 | 0.00 | 83 | 1017.8 |
| 20260902114257 | 15 | 152 | 3.2 | 8.0 | 0.00 | 0.03 | 0.00 | 84 | 1017.9 |
| 20260902113747 | 15 | 157 | 3.2 | 6.4 | 0.00 | 0.03 | 0.00 | 84 | 1017.9 |
| 20260902113245 | 15 | 132 | 1.6 | 6.4 | 0.00 | 0.03 | 0.00 | 84 | 1018.0 |
| 20260902112746 | 15 | 148 | 1.6 | 8.0 | 0.00 | 0.03 | 0.00 | 85 | 1018.1 |
| 20260902112247 | 15 | 169 | 3.2 | 8.0 | 0.00 | 0.03 | 0.00 | 85 | 1018.2 |
| 20260902111746 | 15 | 146 | 1.6 | 8.0 | 0.00 | 0.03 | 0.00 | 85 | 1018.2 |
| 20260902111247 | 15 | 156 | 1.6 | 11.3 | 0.00 | 0.03 | 0.00 | 85 | 1018.1 |
| 20260902110740 | 15 | 155 | 3.2 | 11.3 | 0.00 | 0.03 | 0.00 | 85 | 1018.2 |
| 20260902110237 | 15 | 126 | 3.2 | 12.9 | 0.00 | 0.03 | 0.00 | 85 | 1018.4 |
| 20260902105738 | 15 | 124 | 3.2 | 12.9 | 0.00 | 0.03 | 0.00 | 85 | 1018.4 |
| 20260902105239 | 15 | 152 | 3.2 | 11.3 | 0.00 | 0.03 | 0.00 | 85 | 1018.7 |
| 20260902104737 | 15 | 153 | 3.2 | 11.3 | 0.00 | 0.03 | 0.00 | 85 | 1018.5 |
| 20260902104239 | 15 | 204 | 1.6 | 11.3 | 0.00 | 0.03 | 0.00 | 85 | 1018.8 |
| 20260902103737 | 15 | 150 | 1.6 | 6.4 | 0.00 | 0.03 | 0.00 | 85 | 1018.9 |
| 20260902103234 | 15 | 144 | 3.2 | 11.3 | 0.00 | 0.03 | 0.00 | 85 | 1019.0 |
| 20260902102735 | 15 | 136 | 3.2 | 11.3 | 0.00 | 0.03 | 0.00 | 86 | 1018.9 |
| 20260902102233 | 15 | 161 | 1.6 | 11.3 | 0.00 | 0.03 | 0.00 | 86 | 1018.9 |
| 20260902101732 | 15 | 142 | 1.6 | 11.3 | 0.00 | 0.03 | 0.00 | 86 | 1019.0 |
| 20260902101232 | 15 | 142 | 1.6 | 9.7 | 0.00 | 0.03 | 0.00 | 86 | 1019.2 |
| 20260902100727 | 15 | 141 | 1.6 | 8.0 | 0.00 | 0.03 | 0.00 | 86 | 1019.1 |
| 20260902100227 | 15 | 159 | 3.2 | 8.0 | 0.00 | 0.03 | 0.00 | 86 | 1019.1 |
| 20260902095726 | 15 | 150 | 1.6 | 8.0 | 0.00 | 0.03 | 0.00 | 86 | 1019.2 |
| 20260902095223 | 15 | 181 | 0.0 | 6.4 | 0.00 | 0.03 | 0.00 | 86 | 1019.3 |
| 20260902094724 | 15 | 130 | 0.0 | 3.2 | 0.00 | 0.03 | 0.00 | 86 | 1019.3 |
| 20260902094224 | 15 | 130 | 0.0 | 6.4 | 0.00 | 0.03 | 0.00 | 86 | 1019.2 |
| 20260902093717 | 15 | 132 | 0.0 | 6.4 | 0.00 | 0.03 | 0.00 | 85 | 1019.2 |
| 20260902093219 | 15 | 144 | 0.0 | 1.6 | 0.00 | 0.03 | 0.00 | 85 | 1019.3 |
| 20260902092718 | 15 | 143 | 0.0 | 1.6 | 0.00 | 0.03 | 0.00 | 85 | 1019.4 |
| 20260902092217 | 15 | 143 | 0.0 | 1.6 | 0.00 | 0.03 | 0.00 | 84 | 1019.4 |
| 20260902091718 | 15 | 143 | 0.0 | 3.2 | 0.00 | 0.03 | 0.00 | 84 | 1019.4 |
| 20260902091219 | 15 | 144 | 0.0 | 4.8 | 0.00 | 0.03 | 0.00 | 84 | 1019.5 |
| 20260902090713 | 15 | 143 | 0.0 | 4.8 | 0.00 | 0.03 | 0.00 | 83 | 1019.6 |
| 20260902090214 | 15 | 131 | 0.0 | 4.8 | 0.00 | 0.03 | 0.00 | 83 | 1019.6 |
| 20260902085712 | 15 | 132 | 1.6 | 4.8 | 0.00 | 0.03 | 0.00 | 83 | 1019.7 |
| 20260902085212 | 15 | 141 | 1.6 | 6.4 | 0.00 | 0.03 | 0.00 | 83 | 1019.7 |
| 20260902084712 | 15 | 142 | 3.2 | 9.7 | 0.00 | 0.03 | 0.00 | 83 | 1019.9 |
| 20260902084211 | 15 | 150 | 1.6 | 9.7 | 0.00 | 0.03 | 0.00 | 83 | 1019.8 |
| 20260902083706 | 15 | 185 | 1.6 | 9.7 | 0.00 | 0.03 | 0.00 | 83 | 1019.9 |
| 20260902083205 | 15 | 162 | 1.6 | 9.7 | 0.00 | 0.03 | 0.00 | 83 | 1019.8 |
| 20260902082707 | 15 | 154 | 1.6 | 8.0 | 0.00 | 0.03 | 0.00 | 83 | 1020.0 |
| 20260902082207 | 15 | 168 | 0.0 | 4.8 | 0.00 | 0.03 | 0.00 | 83 | 1020.0 |
| 20260902081704 | 15 | 166 | 1.6 | 4.8 | 0.00 | 0.03 | 0.00 | 83 | 1020.0 |
| 20260902081204 | 15 | 161 | 1.6 | 4.8 | 0.00 | 0.03 | 0.00 | 83 | 1020.1 |
| 20260902080659 | 15 | 157 | 1.6 | 8.0 | 0.00 | 0.03 | 0.00 | 83 | 1020.0 |
| 20260902080153 | 15 | 169 | 1.6 | 8.0 | 0.00 | 0.03 | 0.00 | 83 | 1020.1 |
| 20260902075645 | 15 | 191 | 1.6 | 4.8 | 0.00 | 0.03 | 0.00 | 83 | 1020.1 |
| 20260902075146 | 15 | 197 | 1.6 | 8.0 | 0.00 | 0.03 | 0.00 | 83 | 1020.0 |
| 20260902074645 | 15 | 167 | 3.2 | 8.0 | 0.00 | 0.03 | 0.00 | 83 | 1020.0 |
| 20260902074147 | 15 | 188 | 3.2 | 8.0 | 0.00 | 0.03 | 0.00 | 83 | 1019.8 |
| 20260902073647 | 15 | 192 | 3.2 | 9.7 | 0.00 | 0.03 | 0.00 | 83 | 1019.8 |
| 20260902073145 | 15 | 171 | 3.2 | 9.7 | 0.00 | 0.03 | 0.00 | 83 | 1019.9 |
| 20260902072647 | 15 | 173 | 3.2 | 12.9 | 0.00 | 0.03 | 0.00 | 83 | 1020.0 |
| 20260902072144 | 15 | 196 | 3.2 | 12.9 | 0.00 | 0.03 | 0.00 | 84 | 1020.0 |
| 20260902071640 | 15 | 161 | 3.2 | 9.7 | 0.00 | 0.03 | 0.00 | 84 | 1020.2 |
| 20260902071140 | 15 | 167 | 3.2 | 6.4 | 0.00 | 0.03 | 0.00 | 84 | 1020.0 |
| 20260902070639 | 15 | 190 | 3.2 | 11.3 | 0.00 | 0.03 | 0.00 | 84 | 1020.2 |
| 20260902070140 | 15 | 223 | 3.2 | 11.3 | 0.00 | 0.03 | 0.00 | 84 | 1020.2 |
| 20260902065641 | 15 | 162 | 3.2 | 11.3 | 0.00 | 0.03 | 0.03 | 84 | 1020.3 |
| 20260902065138 | 16 | 151 | 3.2 | 11.3 | 0.00 | 0.03 | 0.03 | 84 | 1020.3 |
| 20260902064635 | 16 | 147 | 3.2 | 9.7 | 0.00 | 0.03 | 0.03 | 84 | 1020.4 |
| 20260902064136 | 16 | 174 | 3.2 | 11.3 | 0.00 | 0.03 | 0.03 | 84 | 1020.3 |
| 20260902063631 | 16 | 177 | 3.2 | 11.3 | 0.00 | 0.03 | 0.03 | 84 | 1020.3 |
| 20260902063129 | 16 | 207 | 3.2 | 9.7 | 0.00 | 0.03 | 0.03 | 83 | 1020.4 |
| 20260902062625 | 16 | 184 | 3.2 | 12.9 | 0.00 | 0.03 | 0.03 | 83 | 1020.4 |
| 20260902062124 | 16 | 185 | 3.2 | 12.9 | 0.00 | 0.03 | 0.03 | 83 | 1020.4 |
| 20260902061625 | 16 | 173 | 3.2 | 12.9 | 0.00 | 0.03 | 0.03 | 83 | 1020.5 |
| 20260902061122 | 16 | 215 | 4.8 | 16.1 | 0.00 | 0.03 | 0.03 | 83 | 1020.5 |
| 20260902060622 | 16 | 213 | 4.8 | 16.1 | 0.00 | 0.03 | 0.03 | 83 | 1020.5 |
| 20260902060121 | 16 | 185 | 4.8 | 16.1 | 0.00 | 0.03 | 0.03 | 83 | 1020.5 |
| 20260902055623 | 16 | 146 | 4.8 | 14.5 | 0.00 | 0.03 | 0.03 | 83 | 1020.7 |
| 20260902055122 | 16 | 152 | 4.8 | 14.5 | 0.00 | 0.03 | 0.03 | 83 | 1020.7 |
| 20260902054622 | 16 | 153 | 3.2 | 14.5 | 0.00 | 0.03 | 0.03 | 83 | 1020.8 |
| 20260902054122 | 16 | 126 | 3.2 | 11.3 | 0.00 | 0.03 | 0.03 | 83 | 1020.7 |
| 20260902053621 | 16 | 187 | 3.2 | 11.3 | 0.00 | 0.03 | 0.03 | 83 | 1020.8 |
| 20260902053121 | 16 | 150 | 3.2 | 8.0 | 0.00 | 0.03 | 0.03 | 83 | 1020.8 |
| 20260902052623 | 16 | 146 | 3.2 | 8.0 | 0.00 | 0.03 | 0.03 | 83 | 1020.8 |
| 20260902052119 | 16 | 155 | 3.2 | 9.7 | 0.00 | 0.03 | 0.03 | 83 | 1020.8 |
| 20260902051619 | 16 | 167 | 3.2 | 9.7 | 0.00 | 0.03 | 0.03 | 83 | 1020.9 |
| 20260902051122 | 16 | 157 | 1.6 | 8.0 | 0.00 | 0.03 | 0.03 | 83 | 1020.9 |
| 20260902050617 | 16 | 141 | 1.6 | 8.0 | 0.00 | 0.03 | 0.03 | 83 | 1020.9 |
| 20260902050117 | 16 | 157 | 1.6 | 4.8 | 0.00 | 0.03 | 0.03 | 82 | 1020.9 |
| 20260902045618 | 16 | 159 | 1.6 | 4.8 | 0.00 | 0.03 | 0.03 | 82 | 1020.9 |
| 20260902045118 | 16 | 158 | 1.6 | 4.8 | 0.00 | 0.03 | 0.03 | 82 | 1020.9 |
| 20260902044617 | 16 | 158 | 0.0 | 3.2 | 0.00 | 0.03 | 0.03 | 82 | 1020.8 |
| 20260902044119 | 16 | 157 | 0.0 | 3.2 | 0.00 | 0.03 | 0.03 | 82 | 1020.8 |
| 20260902043613 | 16 | 157 | 0.0 | 3.2 | 0.00 | 0.03 | 0.03 | 81 | 1020.9 |
| 20260902043114 | 16 | 158 | 0.0 | 3.2 | 0.00 | 0.03 | 0.03 | 81 | 1020.8 |
| 20260902042614 | 16 | 157 | 0.0 | 3.2 | 0.00 | 0.03 | 0.03 | 81 | 1020.8 |
| 20260902042114 | 17 | 157 | 0.0 | 4.8 | 0.00 | 0.03 | 0.03 | 81 | 1020.8 |
| 20260902041614 | 17 | 157 | 0.0 | 4.8 | 0.00 | 0.03 | 0.03 | 81 | 1020.8 |
| 20260902041115 | 17 | 156 | 0.0 | 3.2 | 0.00 | 0.03 | 0.03 | 81 | 1020.9 |
| 20260902040609 | 17 | 157 | 0.0 | 3.2 | 0.00 | 0.03 | 0.03 | 81 | 1021.0 |
| 20260902040110 | 17 | 157 | 0.0 | 3.2 | 0.00 | 0.03 | 0.03 | 81 | 1020.9 |
| 20260902035609 | 17 | 157 | 1.6 | 4.8 | 0.00 | 0.03 | 0.03 | 81 | 1020.9 |
| 20260902035110 | 17 | 155 | 3.2 | 9.7 | 0.00 | 0.03 | 0.03 | 80 | 1020.8 |
| 20260902034609 | 17 | 151 | 3.2 | 9.7 | 0.00 | 0.03 | 0.03 | 80 | 1020.8 |
| 20260902034110 | 17 | 137 | 3.2 | 11.3 | 0.00 | 0.03 | 0.03 | 80 | 1020.8 |
| 20260902033604 | 17 | 178 | 3.2 | 11.3 | 0.00 | 0.03 | 0.03 | 80 | 1020.8 |
| 20260902033105 | 17 | 163 | 4.8 | 11.3 | 0.00 | 0.03 | 0.03 | 80 | 1020.8 |
| 20260902032600 | 17 | 246 | 3.2 | 11.3 | 0.00 | 0.03 | 0.03 | 80 | 1020.8 |
| 20260902032100 | 17 | 181 | 3.2 | 11.3 | 0.00 | 0.03 | 0.03 | 80 | 1020.8 |
| 20260902031557 | 17 | 182 | 3.2 | 11.3 | 0.00 | 0.03 | 0.03 | 80 | 1020.7 |
| 20260902031057 | 17 | 230 | 3.2 | 9.7 | 0.00 | 0.03 | 0.03 | 79 | 1020.7 |
| 20260902030555 | 17 | 197 | 3.2 | 9.7 | 0.00 | 0.03 | 0.03 | 79 | 1020.6 |
| 20260902030056 | 17 | 184 | 3.2 | 9.7 | 0.00 | 0.03 | 0.03 | 79 | 1020.6 |
| 20260902025551 | 17 | 167 | 1.6 | 9.7 | 0.00 | 0.03 | 0.03 | 79 | 1020.5 |
| 20260902025051 | 17 | 187 | 1.6 | 4.8 | 0.00 | 0.03 | 0.03 | 79 | 1020.5 |
| 20260902024553 | 17 | 199 | 1.6 | 4.8 | 0.00 | 0.03 | 0.03 | 79 | 1020.5 |
| 20260902024051 | 17 | 217 | 1.6 | 6.4 | 0.00 | 0.03 | 0.03 | 78 | 1020.4 |
| 20260902023555 | 17 | 230 | 1.6 | 8.0 | 0.00 | 0.03 | 0.03 | 78 | 1020.5 |
| 20260902023050 | 17 | 161 | 1.6 | 8.0 | 0.00 | 0.03 | 0.03 | 78 | 1020.4 |
| 20260902022545 | 17 | 148 | 1.6 | 8.0 | 0.00 | 0.03 | 0.03 | 78 | 1020.4 |
| 20260902022045 | 17 | 172 | 1.6 | 9.7 | 0.00 | 0.03 | 0.03 | 78 | 1020.4 |
| 20260902021546 | 17 | 194 | 1.6 | 9.7 | 0.00 | 0.03 | 0.03 | 78 | 1020.4 |
| 20260902021047 | 17 | 242 | 1.6 | 6.4 | 0.00 | 0.03 | 0.03 | 78 | 1020.5 |
| 20260902020543 | 17 | 244 | 1.6 | 6.4 | 0.00 | 0.03 | 0.03 | 78 | 1020.4 |
| 20260902020044 | 17 | 186 | 1.6 | 6.4 | 0.00 | 0.03 | 0.03 | 78 | 1020.4 |
| 20260902015542 | 17 | 261 | 1.6 | 6.4 | 0.00 | 0.03 | 0.03 | 78 | 1020.3 |
| 20260902015039 | 17 | 252 | 1.6 | 6.4 | 0.00 | 0.03 | 0.03 | 78 | 1020.3 |
| 20260902014541 | 17 | 186 | 1.6 | 4.8 | 0.00 | 0.03 | 0.03 | 78 | 1020.3 |
| 20260902014041 | 17 | 185 | 1.6 | 8.0 | 0.00 | 0.03 | 0.03 | 78 | 1020.2 |
| 20260902013537 | 17 | 244 | 1.6 | 8.0 | 0.00 | 0.03 | 0.03 | 78 | 1020.4 |
| 20260902013038 | 17 | 171 | 1.6 | 8.0 | 0.00 | 0.03 | 0.03 | 79 | 1020.5 |
| 20260902012535 | 17 | 246 | 3.2 | 8.0 | 0.00 | 0.03 | 0.03 | 79 | 1020.4 |
| 20260902012035 | 17 | 178 | 3.2 | 11.3 | 0.00 | 0.03 | 0.03 | 78 | 1020.5 |
| 20260902011536 | 17 | 246 | 3.2 | 11.3 | 0.00 | 0.03 | 0.03 | 78 | 1020.6 |
| 20260902011033 | 17 | 182 | 4.8 | 11.3 | 0.00 | 0.03 | 0.03 | 78 | 1020.6 |
| 20260902010531 | 17 | 243 | 4.8 | 17.7 | 0.00 | 0.03 | 0.03 | 77 | 1020.5 |
| 20260902010030 | 18 | 198 | 4.8 | 17.7 | 0.00 | 0.03 | 0.03 | 78 | 1020.4 |
| 20260902005524 | 18 | 228 | 6.4 | 14.5 | 0.00 | 0.03 | 0.03 | 77 | 1020.3 |
| 20260902005023 | 18 | 266 | 4.8 | 14.5 | 0.00 | 0.03 | 0.03 | 77 | 1020.2 |
| 20260902004523 | 18 | 204 | 4.8 | 12.9 | 0.00 | 0.03 | 0.03 | 76 | 1020.2 |
| 20260902004023 | 18 | 231 | 6.4 | 17.7 | 0.00 | 0.03 | 0.03 | 76 | 1020.2 |
| 20260902003523 | 18 | 274 | 4.8 | 17.7 | 0.00 | 0.03 | 0.03 | 75 | 1020.1 |
| 20260902003023 | 18 | 222 | 3.2 | 11.3 | 0.00 | 0.03 | 0.03 | 75 | 1020.1 |
| 20260902002518 | 19 | 219 | 6.4 | 14.5 | 0.00 | 0.03 | 0.03 | 75 | 1019.9 |
| 20260902002017 | 19 | 241 | 6.4 | 14.5 | 0.00 | 0.03 | 0.03 | 74 | 1020.0 |
| 20260902001517 | 19 | 273 | 4.8 | 12.9 | 0.00 | 0.03 | 0.03 | 73 | 1019.9 |
| 20260902001017 | 19 | 242 | 3.2 | 8.0 | 0.00 | 0.03 | 0.03 | 73 | 1019.9 |
| 20260902000517 | 19 | 182 | 4.8 | 11.3 | 0.00 | 0.03 | 0.03 | 72 | 1019.9 |
| 20260902000018 | 19 | 247 | 4.8 | 11.3 | 0.00 | 0.03 | 0.03 | 72 | 1020.0 |
| 20260901235514 | 19 | 268 | 4.8 | 12.9 | 0.00 | 0.03 | 0.03 | 72 | 1019.9 |
| 20260901235012 | 19 | 241 | 3.2 | 12.9 | 0.00 | 0.03 | 0.03 | 71 | 1019.9 |
| 20260901234511 | 19 | 204 | 4.8 | 14.5 | 0.00 | 0.03 | 0.03 | 71 | 1019.9 |
| 20260901234011 | 19 | 240 | 6.4 | 14.5 | 0.00 | 0.03 | 0.03 | 71 | 1019.9 |
| 20260901233510 | 19 | 248 | 4.8 | 14.5 | 0.00 | 0.03 | 0.03 | 71 | 1019.9 |
| 20260901232508 | 20 | 226 | 3.2 | 11.3 | 0.00 | 0.03 | 0.03 | 72 | 1019.9 |
| 20260901232009 | 20 | 232 | 4.8 | 11.3 | 0.00 | 0.03 | 0.03 | 72 | 1020.0 |
| 20260901231510 | 20 | 213 | 4.8 | 11.3 | 0.00 | 0.03 | 0.03 | 72 | 1020.0 |
| 20260901231006 | 20 | 273 | 3.2 | 11.3 | 0.00 | 0.03 | 0.03 | 72 | 1020.0 |
| 20260901230505 | 20 | 254 | 3.2 | 8.0 | 0.00 | 0.03 | 0.03 | 72 | 1020.1 |
| 20260901230005 | 20 | 211 | 3.2 | 9.7 | 0.00 | 0.03 | 0.03 | 72 | 1020.0 |
| 20260901225500 | 20 | 166 | 3.2 | 9.7 | 0.00 | 0.03 | 0.03 | 71 | 1020.0 |
| 20260901224959 | 20 | 205 | 3.2 | 9.7 | 0.00 | 0.03 | 0.03 | 71 | 1020.0 |
| 20260901224458 | 20 | 259 | 3.2 | 9.7 | 0.00 | 0.03 | 0.03 | 72 | 1020.0 |
| 20260901223958 | 20 | 242 | 3.2 | 8.0 | 0.00 | 0.03 | 0.03 | 72 | 1020.0 |
| 20260901223459 | 20 | 191 | 4.8 | 11.3 | 0.00 | 0.03 | 0.03 | 72 | 1020.0 |
| 20260901223000 | 20 | 217 | 4.8 | 11.3 | 0.00 | 0.03 | 0.03 | 72 | 1020.1 |
| 20260901222453 | 20 | 163 | 4.8 | 11.3 | 0.00 | 0.03 | 0.03 | 71 | 1020.1 |
| 20260901221953 | 20 | 249 | 4.8 | 11.3 | 0.00 | 0.03 | 0.03 | 71 | 1020.1 |
| 20260901221453 | 20 | 188 | 4.8 | 9.7 | 0.00 | 0.03 | 0.03 | 71 | 1020.1 |
| 20260901220952 | 20 | 207 | 3.2 | 9.7 | 0.00 | 0.03 | 0.03 | 71 | 1020.1 |
| 20260901220453 | 20 | 215 | 4.8 | 16.1 | 0.00 | 0.03 | 0.03 | 71 | 1020.0 |
| 20260901215954 | 20 | 167 | 4.8 | 16.1 | 0.00 | 0.03 | 0.03 | 71 | 1020.0 |
| 20260901215448 | 20 | 209 | 3.2 | 9.7 | 0.00 | 0.03 | 0.03 | 72 | 1020.0 |
| 20260901214946 | 19 | 212 | 3.2 | 12.9 | 0.00 | 0.03 | 0.03 | 72 | 1020.0 |
| 20260901214446 | 19 | 148 | 3.2 | 12.9 | 0.00 | 0.03 | 0.03 | 72 | 1019.9 |
| 20260901213948 | 19 | 215 | 4.8 | 12.9 | 0.00 | 0.03 | 0.03 | 72 | 1019.9 |
| 20260901213447 | 19 | 246 | 4.8 | 12.9 | 0.00 | 0.03 | 0.03 | 73 | 1019.9 |
| 20260901212948 | 19 | 196 | 3.2 | 12.9 | 0.00 | 0.03 | 0.03 | 73 | 1019.8 |
| 20260901212445 | 19 | 163 | 3.2 | 14.5 | 0.00 | 0.03 | 0.03 | 72 | 1019.9 |
| 20260901211943 | 19 | 216 | 4.8 | 14.5 | 0.00 | 0.03 | 0.03 | 73 | 1019.9 |
| 20260901211440 | 19 | 155 | 6.4 | 16.1 | 0.00 | 0.03 | 0.03 | 72 | 1020.0 |
| 20260901210940 | 20 | 152 | 4.8 | 16.1 | 0.00 | 0.03 | 0.03 | 72 | 1020.0 |
| 20260901210438 | 20 | 182 | 3.2 | 12.9 | 0.00 | 0.03 | 0.03 | 72 | 1020.0 |
| 20260901205940 | 20 | 166 | 4.8 | 11.3 | 0.00 | 0.03 | 0.03 | 72 | 1019.8 |
| 20260901205437 | 20 | 175 | 3.2 | 11.3 | 0.00 | 0.03 | 0.03 | 71 | 1019.9 |
| 20260901204937 | 20 | 182 | 3.2 | 14.5 | 0.00 | 0.03 | 0.03 | 71 | 1019.9 |
| 20260901204438 | 20 | 177 | 4.8 | 14.5 | 0.00 | 0.03 | 0.03 | 71 | 1019.9 |
| 20260901203934 | 20 | 232 | 4.8 | 12.9 | 0.00 | 0.03 | 0.03 | 70 | 1019.9 |
| 20260901203436 | 20 | 155 | 4.8 | 11.3 | 0.00 | 0.03 | 0.03 | 70 | 1019.9 |
| 20260901202934 | 20 | 161 | 4.8 | 17.7 | 0.00 | 0.03 | 0.03 | 69 | 1019.9 |
| 20260901202436 | 20 | 193 | 6.4 | 17.7 | 0.00 | 0.03 | 0.03 | 70 | 1020.0 |
| 20260901201932 | 20 | 263 | 4.8 | 14.5 | 0.00 | 0.03 | 0.03 | 71 | 1020.1 |
| 20260901201430 | 20 | 162 | 4.8 | 14.5 | 0.00 | 0.03 | 0.03 | 72 | 1020.0 |
| 20260901200932 | 20 | 212 | 4.8 | 12.9 | 0.00 | 0.03 | 0.03 | 73 | 1020.0 |
| 20260901200431 | 19 | 189 | 4.8 | 12.9 | 0.00 | 0.03 | 0.03 | 75 | 1020.0 |
| 20260901195930 | 19 | 194 | 3.2 | 9.7 | 0.00 | 0.03 | 0.03 | 77 | 1020.0 |
| 20260901195431 | 19 | 172 | 1.6 | 9.7 | 0.00 | 0.03 | 0.03 | 78 | 1020.1 |
| 20260901194932 | 19 | 168 | 1.6 | 9.7 | 0.00 | 0.03 | 0.03 | 77 | 1020.1 |
| 20260901194429 | 19 | 162 | 1.6 | 9.7 | 0.00 | 0.03 | 0.03 | 78 | 1020.2 |
| 20260901193928 | 19 | 175 | 1.6 | 9.7 | 0.00 | 0.03 | 0.03 | 78 | 1020.3 |
| 20260901193429 | 19 | 173 | 3.2 | 12.9 | 0.00 | 0.03 | 0.03 | 78 | 1020.3 |
| 20260901192929 | 19 | 197 | 4.8 | 12.9 | 0.00 | 0.03 | 0.03 | 78 | 1020.3 |
| 20260901192430 | 19 | 167 | 3.2 | 11.3 | 0.00 | 0.03 | 0.03 | 78 | 1020.4 |
| 20260901191928 | 19 | 133 | 3.2 | 12.9 | 0.03 | 0.03 | 0.03 | 78 | 1020.5 |
| 20260901191429 | 19 | 123 | 3.2 | 12.9 | 0.03 | 0.03 | 0.03 | 79 | 1020.5 |
| 20260901190929 | 19 | 147 | 3.2 | 17.7 | 0.03 | 0.03 | 0.03 | 80 | 1020.5 |
| 20260901190428 | 19 | 138 | 3.2 | 17.7 | 0.03 | 0.03 | 0.03 | 81 | 1020.7 |
| 20260901185930 | 18 | 180 | 4.8 | 12.9 | 0.03 | 0.03 | 0.03 | 83 | 1020.6 |
| 20260901185423 | 18 | 206 | 4.8 | 12.9 | 0.03 | 0.03 | 0.03 | 83 | 1020.7 |
| 20260901184919 | 18 | 185 | 4.8 | 11.3 | 0.03 | 0.03 | 0.03 | 83 | 1020.8 |
| 20260901184418 | 18 | 129 | 3.2 | 11.3 | 0.03 | 0.03 | 0.03 | 85 | 1020.8 |
| 20260901183918 | 17 | 134 | 3.2 | 12.9 | 0.03 | 0.03 | 0.03 | 85 | 1020.7 |
| 20260901183418 | 17 | 161 | 4.8 | 12.9 | 0.03 | 0.03 | 0.03 | 84 | 1020.8 |
| 20260901182919 | 17 | 161 | 4.8 | 11.3 | 0.03 | 0.03 | 0.03 | 84 | 1020.8 |
| 20260901182419 | 17 | 209 | 4.8 | 12.9 | 0.03 | 0.03 | 0.03 | 84 | 1020.9 |
| 20260901181915 | 17 | 158 | 4.8 | 12.9 | 0.00 | 0.00 | 0.00 | 84 | 1020.9 |
| 20260901181414 | 17 | 192 | 4.8 | 12.9 | 0.00 | 0.00 | 0.00 | 83 | 1020.9 |
| 20260901180914 | 17 | 180 | 4.8 | 12.9 | 0.00 | 0.00 | 0.00 | 82 | 1020.8 |
| 20260901180415 | 17 | 189 | 3.2 | 12.9 | 0.00 | 0.00 | 0.00 | 82 | 1020.9 |
| 20260901175915 | 18 | 142 | 3.2 | 11.3 | 0.00 | 0.00 | 0.00 | 82 | 1020.9 |
| 20260901175415 | 18 | 199 | 4.8 | 14.5 | 0.00 | 0.00 | 0.00 | 82 | 1020.9 |
| 20260901174911 | 17 | 161 | 3.2 | 14.5 | 0.00 | 0.00 | 0.00 | 83 | 1021.0 |
| 20260901174412 | 17 | 171 | 3.2 | 11.3 | 0.00 | 0.00 | 0.00 | 84 | 1020.9 |
| 20260901173910 | 17 | 159 | 4.8 | 9.7 | 0.00 | 0.00 | 0.00 | 85 | 1020.8 |
| 20260901173411 | 17 | 166 | 4.8 | 17.7 | 0.00 | 0.00 | 0.00 | 84 | 1020.8 |
| 20260901172910 | 17 | 155 | 4.8 | 17.7 | 0.00 | 0.00 | 0.00 | 84 | 1020.8 |
| 20260901172412 | 17 | 230 | 4.8 | 12.9 | 0.00 | 0.00 | 0.00 | 85 | 1020.8 |
| 20260901171910 | 17 | 144 | 4.8 | 12.9 | 0.00 | 0.00 | 0.00 | 85 | 1020.7 |
| 20260901171410 | 17 | 206 | 3.2 | 11.3 | 0.00 | 0.00 | 0.00 | 85 | 1020.7 |
| 20260901170911 | 17 | 162 | 3.2 | 12.9 | 0.00 | 0.00 | 0.00 | 86 | 1020.6 |
| 20260901170407 | 17 | 222 | 3.2 | 12.9 | 0.00 | 0.00 | 0.00 | 86 | 1020.6 |
| 20260901165904 | 16 | 167 | 4.8 | 12.9 | 0.00 | 0.00 | 0.00 | 87 | 1020.8 |
| 20260901165403 | 16 | 178 | 3.2 | 12.9 | 0.00 | 0.00 | 0.00 | 87 | 1020.7 |
| 20260901164902 | 16 | 153 | 1.6 | 6.4 | 0.00 | 0.00 | 0.00 | 88 | 1020.7 |
| 20260901164402 | 16 | 157 | 1.6 | 4.8 | 0.00 | 0.00 | 0.00 | 89 | 1020.7 |
| 20260901163902 | 15 | 157 | 1.6 | 8.0 | 0.00 | 0.00 | 0.00 | 89 | 1020.8 |
| 20260901163358 | 15 | 159 | 1.6 | 8.0 | 0.00 | 0.00 | 0.00 | 89 | 1020.9 |
| 20260901162858 | 15 | 205 | 1.6 | 6.4 | 0.00 | 0.00 | 0.00 | 89 | 1020.9 |
| 20260901162356 | 15 | 146 | 1.6 | 6.4 | 0.00 | 0.00 | 0.00 | 89 | 1021.0 |
| 20260901161856 | 15 | 166 | 1.6 | 6.4 | 0.00 | 0.00 | 0.00 | 89 | 1021.0 |
| 20260901161356 | 15 | 168 | 1.6 | 6.4 | 0.00 | 0.00 | 0.00 | 89 | 1021.2 |
| 20260901160857 | 15 | 163 | 3.2 | 8.0 | 0.00 | 0.00 | 0.00 | 89 | 1021.2 |
| 20260901160351 | 15 | 175 | 3.2 | 9.7 | 0.00 | 0.00 | 0.00 | 89 | 1021.1 |
| 20260901155850 | 15 | 170 | 3.2 | 9.7 | 0.00 | 0.00 | 0.00 | 89 | 1021.1 |
| 20260901155350 | 15 | 200 | 1.6 | 8.0 | 0.00 | 0.00 | 0.00 | 89 | 1021.0 |
| 20260901154850 | 15 | 169 | 1.6 | 6.4 | 0.00 | 0.00 | 0.00 | 88 | 1021.1 |
| 20260901154350 | 15 | 155 | 1.6 | 9.7 | 0.00 | 0.00 | 0.00 | 88 | 1021.1 |
| 20260901153850 | 15 | 154 | 3.2 | 9.7 | 0.00 | 0.00 | 0.00 | 88 | 1021.1 |
| 20260901153344 | 15 | 165 | 1.6 | 8.0 | 0.00 | 0.00 | 0.00 | 88 | 1021.0 |
| 20260901152844 | 15 | 161 | 3.2 | 8.0 | 0.00 | 0.00 | 0.00 | 87 | 1021.1 |
| 20260901152344 | 15 | 132 | 3.2 | 12.9 | 0.00 | 0.00 | 0.00 | 87 | 1020.9 |
| 20260901151844 | 15 | 142 | 4.8 | 17.7 | 0.00 | 0.00 | 0.00 | 87 | 1021.0 |
| 20260901151344 | 15 | 171 | 4.8 | 17.7 | 0.00 | 0.00 | 0.00 | 86 | 1020.9 |
| 20260901150844 | 15 | 158 | 4.8 | 12.9 | 0.00 | 0.00 | 0.00 | 86 | 1020.9 |
| 20260901150340 | 15 | 153 | 3.2 | 12.9 | 0.00 | 0.00 | 0.00 | 86 | 1020.7 |
| 20260901145839 | 15 | 158 | 3.2 | 11.3 | 0.00 | 0.00 | 0.00 | 86 | 1020.6 |
| 20260901145341 | 15 | 174 | 3.2 | 9.7 | 0.00 | 0.00 | 0.00 | 86 | 1020.7 |
| 20260901144840 | 15 | 142 | 3.2 | 9.7 | 0.00 | 0.00 | 0.00 | 85 | 1020.6 |
| 20260901144338 | 15 | 157 | 3.2 | 8.0 | 0.00 | 0.00 | 0.00 | 85 | 1020.6 |
| 20260901143837 | 15 | 136 | 3.2 | 8.0 | 0.00 | 0.00 | 0.00 | 85 | 1020.5 |
| 20260901143336 | 15 | 154 | 3.2 | 9.7 | 0.00 | 0.00 | 0.00 | 86 | 1020.5 |
| 20260901142834 | 15 | 188 | 3.2 | 9.7 | 0.00 | 0.00 | 0.00 | 85 | 1020.5 |
| 20260901142335 | 15 | 192 | 3.2 | 9.7 | 0.00 | 0.00 | 0.00 | 85 | 1020.6 |
| 20260901141834 | 15 | 138 | 3.2 | 9.7 | 0.00 | 0.00 | 0.00 | 85 | 1020.5 |
| 20260901141332 | 15 | 155 | 3.2 | 9.7 | 0.00 | 0.00 | 0.00 | 85 | 1020.5 |
| 20260901140833 | 15 | 172 | 1.6 | 9.7 | 0.00 | 0.00 | 0.00 | 85 | 1020.4 |
| 20260901140328 | 15 | 117 | 1.6 | 6.4 | 0.00 | 0.00 | 0.00 | 85 | 1020.3 |
| 20260901135826 | 15 | 117 | 3.2 | 8.0 | 0.00 | 0.00 | 0.00 | 85 | 1020.2 |
| 20260901135326 | 15 | 119 | 1.6 | 8.0 | 0.00 | 0.00 | 0.00 | 85 | 1020.3 |
| 20260901134826 | 15 | 157 | 1.6 | 8.0 | 0.00 | 0.00 | 0.00 | 85 | 1020.3 |
| 20260901134325 | 15 | 167 | 3.2 | 8.0 | 0.00 | 0.00 | 0.00 | 85 | 1020.1 |
| 20260901133827 | 15 | 144 | 1.6 | 8.0 | 0.00 | 0.00 | 0.00 | 86 | 1020.1 |
| 20260901133321 | 15 | 153 | 1.6 | 6.4 | 0.00 | 0.00 | 0.00 | 86 | 1020.2 |
| 20260901132820 | 15 | 161 | 1.6 | 6.4 | 0.00 | 0.00 | 0.00 | 86 | 1020.1 |
| 20260901132319 | 15 | 162 | 1.6 | 6.4 | 0.00 | 0.00 | 0.00 | 86 | 1020.3 |
| 20260901131820 | 15 | 163 | 1.6 | 6.4 | 0.00 | 0.00 | 0.00 | 86 | 1020.2 |
| 20260901131320 | 15 | 162 | 1.6 | 6.4 | 0.00 | 0.00 | 0.00 | 86 | 1020.2 |
| 20260901130820 | 15 | 161 | 1.6 | 8.0 | 0.00 | 0.00 | 0.00 | 86 | 1020.2 |
| 20260901130317 | 15 | 152 | 1.6 | 8.0 | 0.00 | 0.00 | 0.00 | 86 | 1020.2 |
| 20260901125816 | 15 | 157 | 1.6 | 6.4 | 0.00 | 0.00 | 0.00 | 86 | 1020.2 |
| 20260901125314 | 15 | 159 | 1.6 | 6.4 | 0.00 | 0.00 | 0.00 | 86 | 1020.2 |